Regional Weather Roundup
Issued by NWS Jackson, KY

Home | Current Version | Previous Version | Graphics & Text | Print | Product List | Glossary On
Versions: 1 2 3 4 5 6 7 8 9 10 11 12 13 14 15 16 17 18 19 20 21 22 23 24 25 26
000
ASUS43 KJKL 261210
RWRJKL

EAST KENTUCKY HOURLY WEATHER ROUNDUP
NATIONAL WEATHER SERVICE JACKSON KY
800 AM EDT THU MAY 26 2016

NOTE: "FAIR" INDICATES FEW OR NO CLOUDS BELOW 12,000 FEET WITH
NO SIGNIFICANT WEATHER AND/OR OBSTRUCTIONS TO VISIBILITY.

* THESE REPORTS ARE NOT UNDER NWS QUALITY CONTROL AND MAY NOT
  REPORT WEATHER SUCH AS PRECIPITATION AND FOG.

KYZ079-080-083-085-087-088-110-112-115-119-120-261300
...EASTERN KENTUCKY...

CITY           SKY/WX    TMP DP  RH WIND       PRES   REMARKS
JACKSON        LGT RAIN  64  61  90 MISG      30.19R FOG
6HR MIN TEMP:  64; 6HR MAX TEMP:  71; 6HR PCP:  0.05;

LONDON         LGT RAIN  63  62  97 S3        30.20S
6HR MIN TEMP:  63; 6HR MAX TEMP:  70; 6HR PCP:  0.29;

SOMERSET*      LGT RAIN  63  63 100 S5        30.18S
MONTICELLO*    LGT RAIN  65  62  90 SE8       30.20R
6HR MIN TEMP:  61; 6HR MAX TEMP:  67; 6HR PCP:  0.41;

WILLIAMSBURG*  CLOUDY    63  63 100 CALM      30.21R
MIDDLESBORO*   LGT RAIN  65  64  98 CALM      30.22S
6HR MIN TEMP:  62; 6HR MAX TEMP:  67; 6HR PCP:  0.13;

HARLAN APT*    CLOUDY    66  59  77 SW6       30.23R
HAZARD APT*    RAIN      66  64  94 SW7       30.21R
BLACK MTN*       N/A     61  57  88 S5          N/A
PIKE CO APT*     N/A     69  59  71 SW3       30.18R
BIG SANDY APT* CLOUDY    69  60  73 W3        30.17R
6HR MIN TEMP:  68; 6HR MAX TEMP:  72;

MOREHEAD APT*  LGT RAIN  66  63  88 SW9G15    30.16R
ASHLAND*       CLOUDY    64  63  94 CALM      30.10R
$$

KYZ035-036-041-042-044-050-067-078-099-261300
...CENTRAL KENTUCKY...

CITY           SKY/WX    TMP DP  RH WIND       PRES   REMARKS
MT STERLING*   LGT RAIN  64  64 100 SW10G18   30.16S
FLEMING/MASON* LGT RAIN N/A N/A N/A SW8       30.13S
DANVILLE*      CLOUDY    63  63 100 SE5       30.17R
RICHMOND*      CLOUDY    64  61  88 S7        30.16S
LEXINGTON      TSTM      65  62  90 S14       30.14S FOG
6HR MIN TEMP:  65; 6HR MAX TEMP:  67; 6HR PCP:  0.43;

FRANKFORT      CLOUDY    67  62  84 S8        30.11R
6HR MIN TEMP:  67; 6HR MAX TEMP:  69; 6HR PCP: TRACE;

LOUISVILLE     PTSUNNY   69  63  81 SE9       30.08R
6HR MIN TEMP:  68; 6HR MAX TEMP:  70;

LEBANON*       PTSUNNY   66  64  94 SE9       30.12S
GLASGOW*       CLOUDY    66  64  91 CALM      30.11R
BOWLING GREEN  MOSUNNY   68  63  84 S3        30.09S
6HR MIN TEMP:  63; 6HR MAX TEMP:  68; 6HR PCP: TRACE;

$$

KYZ091>093-OHZ055-061-077-WVZ005-015-034-035-042-261300
...SOUTHERN OHIO/WEST VIRGINIA...

CITY           SKY/WX    TMP DP  RH WIND       PRES   REMARKS
COVINGTON      CLOUDY    67  63  87 S8        30.09R
COLUMBUS       CLOUDY    68  62  81 S5        30.06S
DAYTON         PTSUNNY   67  63  87 SW10      30.07R
WILMINGTON     CLOUDY    67  63  87 S9        30.08R
HUNTINGTON       N/A     67  64  90 CALM      30.13R
CHARLESTON     CLOUDY    65  62  90 CALM      30.13F
PINEVILLE*       N/A     64  59  85 MISG      30.24S
BECKLEY        CLOUDY    63  59  87 E5        30.23S
BLUEFIELD      CLOUDY    62  58  86 CALM      30.25F
LOGAN CO APT*    N/A     66  63  88 CALM      30.17R
$$

VAZ002-007-008-TNZ017-027-036-066-071-261300
...SOUTHWEST VIRGINIA/EAST TENNESSEE...

CITY           SKY/WX    TMP DP  RH WIND       PRES   REMARKS
WISE*            N/A     68  54  60 CALM      30.25R
JONESVILLE*      N/A     64  61  88 CALM      30.24R
ABINGDON*        N/A     68  63  84 CALM      30.23S
BRISTOL        CLOUDY    66  63  90 CALM      30.20S
SEVIERVILLE*   PTSUNNY   63  61  94 N5        30.20R
KNOXVILLE      LGT RAIN  68  61  78 CALM      30.20R
OAK RIDGE      LGT RAIN  66  63  90 W3        30.23R FOG
CROSSVILLE     PTSUNNY   64  62  93 CALM      30.21S FOG
NASHVILLE      MOSUNNY   68  63  84 CALM      30.11S
$$

...KEY TO REMARKS...
VSB - VISIBILITY IN MILES
WCI - WIND CHILL INDEX
HX  - HEAT INDEX

$$




USA.gov is the U.S. government's official web portal to all federal, state and local government web resources and services.